Location: Newark
(25.4800°N, 85.7200°E)
Time: 21:07:21
(UTC+00:00)

Vanguard 1 Rocket - Pass Details

Date: 25 August 2019
Orbit: 650 x 4226 km, 34.3° (Epoch: 17 October)

Event Time Altitude Azimuth Distance (km) Brightness Sun altitude
Rises 22:24:02 0° 296° (WNW) 3,013 - -20.4°
Reaches altitude 10° 22:26:11 10° 304° (NW) 2,206 - -19.9°
Exits shadow 22:26:57 15° 309° (NW) 1,944 8.8 -19.8°
Maximum altitude 22:30:49 41° 16° (NNE) 1,297 8.4 -19.0°
Drops below altitude 10° 22:38:05 10° 85° (E) 3,451 11.5 -17.4°
Sets 22:42:19 0° 92° (E) 4,986 12.5 -16.6°
